ATLAS CENTAUR 2 DEB, 701

Orbit data source: Space-Track

ATLAS CENTAUR 2 DEB, 701 is space debris in LEO originally from a launch on Wed, 27 Nov 1963 UTC launched from the Air Force Eastern Test Range (AFETR). Debris objects in space refer to the collection of defunct objects orbiting the Earth. Examples of debris include non-operational satellites, rocket bodies, and fragments generated from explosions, collisions, or faulty payload assembly.

Loading next visibility...
Identifier
701, 1963-047G
Orbit
LEO
Last TLE update
18 hours ago
Origin
Manufacturer
GD/Convair
Mission
Spacecraft
Bus & Motor
CENTAUR PART, Unknown motor
Mass
Unknown
Launch date (UTC)
1963-11-27 (62 years ago)
Launch vehicle
Unknown
Launch site
Air Force Eastern Test Range (AFETR)
Object type
Payload
Rocket body
Debris
Shape & HBR
Unknown
Radar Cross Section
0.560 m², Medium (>0.1 m² and < 1m²)

Expand to show TLE details & history

TLE from 18 hours ago
0 ATLAS CENTAUR 2 DEB
1   701U 63047G   25182.00789198  .00000371  00000-0  94571-4 0  9999
2   701  30.0090 177.0988 0508241 182.5344 177.2618 13.82280094 61971
Epoch: 2025-07-01T00:11Z
TLE epoch observation values (Epoch: 2025-07-01T00:11:21.867Z)
Latitude
0.00004°
Longitude
-105.05176°
Altitude
1,326.568 km
Speed
7.012 km/s
True Right ascension
11h 48m 23s
True Declination
0° 00' 00"
Sunlit
Object was in daylight at epoch
Visualization orbit readout
Latitude
29.47052°
Longitude
-5.7443°
Altitude
918.617 km
Speed
7.416 km/s
Apparent Right ascension
18h 06m 41s
Apparent Declination
-2° 33' 08"
Sunlit
Object is in full shadow
Visualization observer readout
Local Sidereal Time
05:42:07
Azimuth
349.947° N
Elevation
-52.222°
Doppler factor
1
Orbital elements
Apogee altitude
1,332.516 km
Perigee altitude
586.65 km
Semi-major axis
7,337.72 km
Eccentricity
0.05082
Inclination
30.009°
RAAN
177.0988°
Arg. of periapsis
182.5344°
True anomaly
Unknown
Mean anomaly
177.2618°
Eccentric anomaly
Unknown
Mean motion
3.45304 °/min
Orbital period
104.26 mins
BSTAR
0.000094571
Loading maneuver chart data...
Loading SW <> Apogee altitude chart data...

ATLAS CENTAUR 2 DEB Visibility forecast

Observer location: undefined°, undefined°

Span
Click to sort rows by Start time (UTC) header in descending order
Start Az.
Max El. time (UTC)
Max El. Az.
Max El.
End time (UTC)
End Az.
10 mins2025-07-02 02:22:25.271Z198.6° SSW2025-07-02 02:27:25.271Z159.521° S19.406°2025-07-02 02:32:25.271Z116.31° SE
11 mins2025-07-02 04:12:25.271Z226.83° WSW2025-07-02 04:18:25.271Z166.227° S28.766°2025-07-02 04:23:25.271Z113.296° SE
10 mins2025-07-02 06:03:25.271Z243.083° WSW2025-07-02 06:08:25.271Z188.51° SSW29.388°2025-07-02 06:13:25.271Z126.377° SE
6 mins2025-07-02 07:55:25.271Z237.241° WSW2025-07-02 07:58:25.271Z203.197° SW19.049°2025-07-02 08:01:25.271Z165.326° S
|